SCP
0 0 0 0 0 0 0 0 0 0 0 0 0 0 0 0 0 0 0 0 0 0 0 0 0 0 0 0 0 0 0 0 0 0 0 0 0 0 0 0 0 0 0 0 0 0 0 0 0 0 0 0 0 0
0 0 0 0 0 0 0 0 0 0 0 0 0 0 0 0 0 0 0 0 0 0 0 0 0 0 0 0 0 0 0 0 0 0 0 0 0 0 0 0 0 0 0 0 0 0 0 0 0 0 0 0 0 0
0 0 0 0 0 0 0 0 0 0 0 0 0 0 0 0 0 0 0 0 0 0 0 0 0 0 0 0 0 0 0 0 0 0 0 0 0 0 0 0 0 0 0 0 0 0 0 0 0 0 0 0 0 0
0 0 0 0 0 0 0 0 0 0 0 0 0 0 0 0 0 0 0 0 0 0 0 0 0 0 0 0 0 0 0 0 0 0 0 0 0 0 0 0 0 0 0 0 0 0 0 0 0 0 0 0 0 0
0 0 0 0 0 0 0 0 0 0 0 0 0 0 0 0 0 0 0 0 0 0 0 0 0 0 0 0 0 0 0 0 0 0 0 0 0 0 0 0 0 0 0 0 0 0 0 0 0 0 0 0 0 0
0 0 0 0 0 0 0 0 0 0 0 0 0 0 0 0 0 0 0 0 0 0 0 0 0 0 0 0 0 0 0 0 0 0 0 0 0 0 0 0 0 0 0 0 0 0 0 0 0 0 0 0 0 0
0 0 -0 0 0 0 0 0 0 0 0 0 0 0 0 0 0 0 0 0 0 0 0 0 0 0 0 0 0 0 0 0 0 0 0 0 0 0 0 0 0 0 0 0 0 0 0 0 0 0 0 0 0 0
-0 -0 -0 -0 0 0 0 0 0 0 0 0 0 0 0 0 0 0 0 -0 -0 0 0 0 0 0 0 -0 0 0 0 0 0 0 0 0 0 0 0 0 0 0 0 0 0 0 0 0 0 0 0 0 0 0
0 -0 -0 -0 -0 -0 0 0 0 0 0 0 0 0 0 0 0 0 0 0 -0 0 0 0 0 0 0 0 0 0 0 0 0 0 0 0 0 0 0 0 0 0 0 0 0 0 0 0 0 0 0 0 0 0
0 0 -0 -0 -0 -0 -0 -0 0 0 0 0 0 0 0 0 0 0 0 0 0 0 0 0 0 0 -0 0 0 0 0 0 0 0 0 0 0 0 0 0 0 0 0 0 0 0 0 0 0 0 0 0 0 0
0 0 0 -0 0 -0 -0 -0 0 0 0 0 0 0 0 0 0 0 0 0 0 0 0 0 0 0 0 0 0 0 0 0 0 0 0 0 0 0 0 0 0 0 0 0 0 0 0 0 0 0 0 0 0 0
0 -0 0 0 0 0 -0 -0 -0 0 0 0 0 0 0 0 0 0 0 0 0 0 0 0 0 0 0 0 0 0 0 0 0 0 0 0 0 0 0 0 0 0 0 0 -0 0 0 -0 0 0 0 -0 -0 0
0 0 -0 -0 -0 0 0 0 -0 -0 -0 0 0 0 0 0 0 0 0 0 0 0 0 0 0 0 0 0 0 0 0 0 0 0 0 0 0 0 0 0 0 0 -0 0 0 0 0 -0 0 -0 -0 0 0 0
0 -0 -0 -0 -0 0 -0 0 0 0 -0 0 0 0 0 0 0 0 0 0 0 0 0 0 0 0 0 0 0 0 0 0 0 0 0 0 0 0 0 0 0 0 0 0 -0 -0 -0 -0 0 -0 0 0 0 0
0 0 0 -0 0 0 -0 -0 -0 0 0 0 0 0 0 0 0 0 0 0 0 0 0 0 0 0 0 0 0 0 0 0 0 0 0 0 0 0 0 0 0 0 -0 -0 -0 -0 -0 0 -0 0 0 -0 0 -0
0 0 0 -0 -0 -0 -0 -0 -0 -0 0 0 0 -0 0 0 0 -0 -0 0 0 -0 0 0 0 0 0 0 0 0 0 0 0 0 0 0 0 0 0 0 0 0 -0 -0 0 -0 0 -0 -0 -0 -0 -0 -0 -0
0 0 0 0 0 -0 -0 0 0 0 0 0 -0 0 0 -0 -0 0 0 0 0 0 0 0 0 0 0 0 0 0 0 -0 0 0 0 0 0 0 0 -0 0 -0 -0 -0 0 0 0 0 0 -0 -0 -0 0 -0
0 0 0 0 -0 0 0 0 0 0 -0 0 0 0 0 -0 -0 -0 0 0 0 0 0 0 0 0 0 0 0 0 0 0 0 0 0 0 0 0 0 0 0 0 0 -0 0 -0 -0 0 0 0 0 0 -0 0
0 0 -0 -0 -0 -0 0 0 0 0 -0 0 0 0 -0 -0 0 -0 -0 0 0 0 0 0 0 0 0 0 0 0 0 0 0 0 0 0 0 0 0 0 -0 0 0 -0 0 -0 0 -0 0 -0 -0 -0 0 0
-0 -0 -0 -0 -0 0 0 0 0 0 -0 0 -0 -0 -0 -0 -0 0 0 0 0 0 0 0 0 0 0 0 0 0 0 0 0 0 0 0 0 0 0 0 -0 -0 0 -0 0 0 -0 -0 -0 -0 -0 -0 -0 0
0 0 0 0 -0 -0 0 0 0 0 -0 -0 -0 0 -0 0 0 0 0 0 0 0 0 0 0 0 0 0 0 0 0 0 0 0 0 0 0 0 0 0 0 -0 -0 0 -0 -0 -0 -0 -0 0 -0 -0 -0 -0
0 -0 -0 0 0 0 0 0 0 -0 -0 -0 -0 -0 -0 0 0 0 0 0 0 0 0 0 0 0 0 0 0 0 0 0 0 0 0 0 0 -0 -0 0 0 -0 -0 -0 0 0 -0 0 -0 0 -0 0 -0 -0
-0 -0 0 0 0 0 0 0 0 0 -0 -0 0 0 0 0 0 0 0 0 0 0 0 0 0 0 0 0 0 0 0 -0 -0 0 0 0 -0 -0 -0 -0 -0 -0 -0 -0 -0 0 -0 -0 -0 -0 -0 -0 -0 -0
0 0 0 0 0 0 0 0 0 0 0 -0 0 0 0 0 0 0 0 0 0 0 0 0 0 0 0 0 0 0 0 0 -0 0 0 0 -0 -0 -0 -0 -0 -0 0 0 -0 -0 0 0 0 -0 -0 -0 0 -0
0 0 0 0 0 0 0 0 0 0 -0 -0 0 0 0 0 0 0 0 0 0 0 0 0 0 0 0 0 0 0 0 0 0 -0 -0 0 -0 0 -0 0 -0 -0 -0 -0 -0 -0 -0 0 0 0 0 0 0 -0
0 0 0 0 0 0 0 0 0 -0 -0 -0 0 0 0 0 0 0 0 -0 0 0 0 0 0 0 0 -0 0 -0 0 0 0 0 0 0 0 0 0 -0 0 0 0 -0 0 -0 -0 -0 0 -0 0 0 0 0
0 0 0 0 0 0 0 -0 -0 -0 -0 0 0 0 0 0 0 0 0 0 0 0 0 0 0 0 0 0 0 0 0 0 0 0 0 0 0 0 0 -0 -0 -0 0 -0 0 0 0 0 0 0 0 0 0 -0
0 0 0 -0 -0 0 -0 -0 -0 -0 -0 -0 0 0 0 0 0 0 0 0 0 0 0 0 0 0 0 0 0 0 0 0 0 0 0 0 0 0 0 0 0 -0 0 0 0 0 0 -0 -0 -0 0 0 0 0
0 -0 -0 -0 -0 0 -0 -0 -0 0 0 0 0 -0 0 0 0 0 0 0 0 0 0 0 0 0 0 0 0 0 0 0 -0 0 0 0 0 -0 0 0 0 0 0 0 0 0 0 0 0 0 0 0 0 0
-0 0 0 0 0 -0 -0 -0 0 0 0 0 -0 -0 0 0 0 0 0 0 0 -0 -0 -0 -0 0 0 0 0 0 -0 -0 0 0 0 -0 -0 -0 0 0 0 0 0 0 0 0 0 0 0 0 0 0 0 0
-0 -0 -0 -0 -0 -0 -0 -0 -0 -0 -0 -0 -0 -0 -0 -0 0 -0 -0 0 0 0 0 -0 0 -0 -0 0 0 0 0 0 0 -0 -0 -0 0 0 0 0 0 0 0 0 0 -0 0 0 0 0 0 0 0 0
-0 -0 -0 -0 -0 -0 -0 -0 0 0 -0 0 -0 0 -0 0 -0 -0 -0 -0 -0 -0 0 0 0 -0 -0 0 -0 -0 -0 -0 -0 -0 0 0 0 0 0 0 0 0 0 0 0 0 0 0 -0 -0 -0 0 0 0
-0 -0 -0 -0 -0 -0 -0 0 -0 -0 -0 -0 -0 0 0 -0 -0 -0 -0 -0 -0 -0 0 0 0 0 -0 -0 -0 -0 0 0 -0 -0 -0 -0 -0 -0 0 0 0 0 0 0 0 0 0 0 0 -0 0 0 0 0
Wind_Speed_500mb
33 33 32 32 30 28 29 31 30 29 28 25 22 17 13 13 16 11 10 20 9 8 7 2 6 5 3 6 11 14 11 12 10 11 10 12 9 14 8 18 24 24 20 21 26 33 42 20 9 13 15 11 15 15
33 32 31 29 28 27 29 29 30 28 26 24 21 16 10 8 13 13 8 20 11 4 6 4 4 4 3 3 11 3 10 6 16 8 3 9 10 11 15 19 11 17 19 19 17 19 11 8 7 6 12 20 25 21
32 31 30 28 26 26 28 29 30 27 26 23 19 15 9 5 9 12 8 21 11 5 5 10 11 3 2 7 5 11 4 4 2 7 16 8 8 13 18 17 23 14 20 22 27 33 33 25 5 16 34 38 29 37
29 28 27 26 26 27 28 29 28 26 25 23 17 13 7 4 6 9 9 13 10 8 11 13 7 4 8 9 9 6 3 1 3 6 15 10 12 6 15 21 20 26 28 19 30 37 46 44 43 37 41 43 47 51
27 26 26 27 28 28 27 28 27 26 24 20 15 10 5 4 5 6 4 4 13 7 14 11 4 4 5 11 10 7 8 7 11 16 12 14 19 14 20 23 23 27 23 21 12 24 32 38 44 49 54 57 59 59
26 26 25 26 27 27 28 28 27 24 23 17 11 6 4 3 3 6 6 3 10 10 8 6 8 11 11 12 11 11 10 11 16 18 20 18 19 16 11 20 31 23 28 28 30 35 42 49 51 46 55 54 55 52
26 25 26 25 25 27 29 27 27 22 21 13 5 2 3 4 4 8 5 2 10 9 5 9 14 13 15 11 13 14 9 16 17 24 25 26 30 12 20 27 35 41 24 19 25 36 45 46 47 48 57 61 62 62
24 23 23 24 24 28 30 31 25 18 13 8 5 2 2 1 10 7 0 4 11 3 7 7 8 17 17 19 16 7 16 9 11 20 18 18 27 12 8 27 17 13 20 29 36 37 46 54 53 55 54 59 63 61
22 21 22 22 26 28 28 27 18 13 6 7 5 4 11 6 3 2 8 10 3 4 6 9 10 9 15 8 5 12 6 9 6 17 15 6 15 11 16 24 23 13 21 36 47 49 51 49 54 59 60 60 63 61
20 21 21 23 26 26 27 23 17 4 5 3 7 2 7 4 6 4 4 5 5 8 8 11 3 6 8 7 3 9 1 7 10 4 7 12 19 11 12 18 23 23 27 41 46 51 55 58 63 67 64 63 62 63
18 18 20 24 27 25 21 16 5 4 3 4 4 1 4 1 2 6 6 8 8 8 14 11 9 4 8 11 1 5 4 3 5 7 7 9 5 1 18 19 20 28 37 40 44 43 50 60 67 64 66 69 69 70
14 17 21 24 26 21 16 14 4 4 5 1 3 1 3 4 9 7 6 8 9 6 16 17 13 8 5 4 8 4 6 5 10 6 6 6 4 3 19 24 33 35 40 40 40 44 58 64 63 65 66 68 70 74
12 17 20 22 19 18 12 6 5 4 5 4 3 6 7 8 2 9 12 7 7 14 15 17 11 7 7 8 9 5 8 8 13 6 7 8 9 5 17 29 34 36 38 39 45 46 63 65 67 67 78 69 65 67
20 23 28 27 8 10 18 12 5 2 1 5 7 5 9 10 10 10 10 7 10 10 14 10 9 8 6 7 8 8 6 6 6 5 10 7 14 16 19 29 33 38 37 39 41 49 51 56 63 66 49 48 47 46
20 23 29 20 6 3 7 6 3 6 3 8 9 7 15 23 13 10 2 7 10 8 8 5 6 11 9 7 6 6 7 7 9 12 15 13 8 16 22 29 35 32 32 32 34 47 53 51 69 64 53 53 46 48
25 23 18 13 8 10 7 7 6 3 7 9 12 14 22 15 18 19 20 17 9 16 16 11 5 6 9 6 10 11 6 10 12 6 12 16 13 21 26 30 29 26 28 31 32 39 45 45 45 54 58 60 50 47
19 9 20 18 13 14 13 9 6 8 10 9 15 25 27 25 19 16 8 9 13 19 6 8 9 8 5 7 7 9 10 18 19 25 34 26 20 25 28 30 23 22 23 27 31 35 36 45 46 40 55 68 47 49
6 21 26 21 11 10 13 9 7 9 12 20 21 19 16 20 22 23 16 14 13 24 7 9 7 8 8 17 19 2 5 34 26 27 28 29 26 29 27 24 18 20 23 26 29 31 33 40 46 56 52 56 54 49
14 23 25 16 10 7 4 7 10 10 18 21 21 23 24 26 25 26 25 23 21 14 9 8 9 10 11 14 21 23 19 27 29 30 28 16 16 20 19 19 18 18 23 26 26 29 33 40 40 45 54 47 54 55
17 14 11 9 16 5 6 7 8 12 13 12 21 25 24 25 23 21 21 15 15 10 10 9 14 20 16 9 5 15 16 27 24 22 18 13 13 12 11 11 12 15 20 19 22 28 31 34 37 43 51 48 43 49
8 5 6 7 12 11 8 7 11 14 20 23 19 19 22 22 25 18 13 9 10 10 10 11 14 5 4 12 9 11 13 10 14 12 12 11 14 14 13 12 14 19 17 21 30 27 24 31 35 31 38 41 44 38
11 8 6 10 10 8 12 15 14 16 17 25 32 28 25 16 16 12 13 12 11 13 9 8 2 2 3 4 5 3 5 5 6 5 6 8 6 9 11 16 17 19 7 16 19 23 26 29 35 30 28 28 33 42
12 9 7 8 9 9 12 13 10 10 8 8 11 7 7 8 7 8 9 12 1 6 1 4 6 5 10 9 8 7 4 2 5 5 6 4 7 7 12 10 8 14 11 9 19 19 24 22 25 20 28 32 30 30
17 8 8 9 17 10 7 10 12 10 10 14 7 7 3 2 6 4 8 5 12 7 10 11 12 14 10 9 10 4 3 4 12 4 8 10 8 11 11 10 13 12 11 8 15 13 17 20 22 21 25 24 23 25
8 10 9 12 11 8 10 7 7 6 12 11 9 5 4 3 3 6 4 7 6 12 15 12 13 12 11 15 8 6 3 7 6 16 13 12 14 8 6 6 7 13 11 13 11 13 10 14 17 20 22 24 24 24
9 14 13 8 10 9 6 6 5 7 14 8 9 1 4 3 3 3 2 13 4 15 17 17 13 11 8 4 4 2 4 8 9 8 10 8 11 6 11 12 6 11 10 9 11 13 11 7 9 9 11 18 24 25
8 12 19 20 14 13 12 16 23 17 10 4 5 5 6 2 2 8 11 8 5 17 19 19 14 10 11 11 5 4 4 4 7 7 6 9 9 8 8 10 12 11 13 13 13 9 12 10 11 13 16 16 18 20
20 10 16 20 21 19 21 20 17 5 3 12 10 13 8 2 3 10 11 3 9 17 20 19 15 11 8 6 4 3 2 5 10 3 6 6 6 8 8 2 5 7 10 13 9 10 13 12 12 14 15 15 17 18
19 16 18 20 18 13 15 14 17 8 8 7 5 6 6 10 8 7 2 5 11 19 21 20 16 12 8 6 4 5 5 8 7 10 16 6 12 11 8 3 5 2 9 4 21 22 12 15 12 8 10 11 11 13
27 25 20 19 23 17 28 20 19 18 13 14 15 21 18 27 3 1 5 9 14 22 22 20 19 15 15 13 13 10 5 10 7 8 9 11 13 12 6 2 2 3 2 1 2 2 17 9 5 4 14 13 16 16
17 20 28 32 30 30 32 28 28 28 28 28 26 28 23 16 8 8 11 10 14 20 23 23 17 14 15 10 8 11 10 4 12 7 7 11 3 6 7 4 2 2 1 2 7 9 14 11 10 8 9 12 14 17
27 32 30 24 28 29 29 30 30 29 29 25 26 25 20 16 23 18 13 16 14 23 24 20 21 21 14 7 5 13 11 12 11 7 5 7 6 4 5 3 2 4 5 4 6 7 11 13 12 12 15 9 13 14
24 21 14 19 25 28 33 29 28 18 25 25 26 27 24 22 10 16 16 16 16 16 25 27 25 18 12 6 7 9 6 3 1 5 9 9 11 11 13 10 6 6 8 10 10 11 10 9 14 13 14 14 15 14
Wind_Direction_500mb
323 325 326 326 327 329 334 337 339 341 341 342 341 341 340 358 12 56 346 6 35 300 70 70 15 308 231 246 299 76 228 196 222 258 264 273 261 287 309 281 289 282 262 238 247 261 263 25 305 272 43 1 338 324
320 322 322 322 324 326 330 332 335 335 336 338 337 337 335 349 9 53 360 340 358 253 23 238 221 243 195 356 330 167 357 354 7 293 315 307 287 262 271 273 294 250 271 306 323 330 26 4 49 31 325 319 309 293
321 321 321 321 322 324 327 329 329 332 330 331 332 326 322 322 355 7 9 347 355 268 174 182 157 66 195 225 225 296 142 18 186 311 330 304 288 306 281 280 300 260 265 271 279 287 297 301 324 294 297 296 301 291
319 319 320 320 321 323 324 324 325 326 324 325 323 320 306 289 340 357 35 332 357 292 275 133 185 295 248 212 197 207 18 136 303 271 274 279 285 295 284 306 304 301 316 294 280 280 290 293 302 321 308 298 292 287
319 322 323 322 321 321 321 320 322 322 320 321 315 306 273 250 332 359 332 338 20 346 331 85 152 158 133 169 178 200 210 241 262 249 231 255 271 293 289 284 272 265 283 285 314 342 311 304 304 305 302 295 290 289
320 321 321 321 322 323 323 322 322 321 318 319 309 286 241 237 326 77 234 252 358 7 277 216 101 163 169 170 189 210 230 254 260 282 285 283 269 261 280 283 292 313 292 316 310 308 297 296 294 292 291 294 296 298
320 320 322 324 325 328 329 324 318 315 318 310 297 261 242 266 227 258 360 314 353 357 274 231 167 172 185 205 219 227 227 256 264 283 265 269 277 245 270 272 295 291 302 302 295 294 289 295 301 297 296 292 289 286
320 321 324 324 327 331 329 326 316 313 311 302 290 263 277 204 104 85 310 236 343 303 245 268 111 160 190 219 208 198 261 205 266 279 284 267 272 260 278 275 324 324 325 301 301 303 298 295 300 298 293 298 291 280
316 319 323 325 328 327 329 332 320 319 306 304 292 127 106 98 258 303 280 289 238 256 297 266 196 107 170 237 276 229 218 250 152 260 246 268 246 202 242 321 323 299 294 301 303 302 296 302 300 299 296 292 294 287
316 320 318 319 322 325 331 328 325 335 344 112 132 232 191 239 204 276 307 178 228 209 231 269 337 128 231 153 249 341 303 298 253 213 203 218 266 20 288 314 316 307 302 302 313 316 314 309 303 301 294 294 291 283
311 314 316 324 337 331 328 335 0 57 120 12 285 8 209 175 213 241 244 233 178 216 204 226 265 356 144 293 315 226 209 233 265 220 268 281 131 111 356 335 319 306 305 315 317 319 310 313 307 302 297 294 293 284
316 315 318 326 328 329 355 17 77 118 300 323 279 283 271 256 234 238 242 174 207 260 170 206 170 227 104 248 261 261 274 205 253 108 269 268 186 304 323 332 324 319 318 312 311 315 320 310 312 309 303 297 291 285
330 337 334 334 321 313 340 358 302 260 256 300 299 237 219 213 305 226 192 207 210 187 167 191 178 197 196 232 247 238 236 235 303 243 239 242 183 301 337 325 321 322 316 315 315 313 319 331 327 315 306 299 297 294
305 317 323 332 310 337 353 352 275 269 150 251 232 273 223 200 238 205 241 54 99 139 178 188 194 229 205 236 226 241 241 283 250 259 247 323 52 333 337 326 317 323 320 318 326 333 331 335 342 342 340 337 325 309
314 313 315 321 280 279 351 347 307 226 244 250 231 238 222 244 268 249 226 207 187 230 231 321 230 201 213 226 234 265 220 250 200 220 274 351 328 317 327 323 321 318 314 319 325 340 352 341 339 345 355 352 346 353
306 315 310 319 299 234 285 327 322 231 246 239 235 250 244 261 231 206 209 227 193 253 256 216 241 227 217 245 212 223 232 213 250 321 279 312 346 321 321 320 316 309 314 317 327 335 338 332 350 351 0 357 357 354
307 288 311 317 289 254 256 301 276 234 246 229 237 235 264 294 300 283 266 251 217 257 252 266 242 220 226 234 233 242 271 307 354 335 328 351 342 320 314 311 305 304 312 318 316 324 334 348 347 351 359 359 356 355
290 284 300 314 267 254 253 247 254 252 253 250 257 263 255 257 273 281 268 276 248 267 237 246 267 239 238 260 276 357 291 301 327 345 322 316 310 306 304 300 297 307 312 315 324 323 333 340 347 357 6 8 14 11
259 276 295 291 229 211 250 232 224 263 246 260 268 267 264 264 264 265 268 256 251 230 237 240 244 250 260 281 284 290 312 321 310 316 310 327 320 314 311 305 304 315 324 336 347 346 348 356 350 358 7 18 14 25
317 308 296 246 202 205 254 251 242 262 269 313 276 265 261 264 264 246 245 236 240 230 240 236 264 290 298 296 295 298 281 294 302 315 339 348 336 326 325 321 326 329 355 346 351 3 359 358 1 1 13 20 30 47
19 342 322 193 203 242 269 261 249 250 276 274 285 276 272 262 244 243 268 229 224 242 254 280 299 271 293 300 306 292 294 305 327 335 339 7 358 353 352 342 342 22 18 359 0 359 18 15 17 12 17 31 32 55
278 262 287 199 222 248 256 237 251 295 275 272 284 266 260 265 257 236 188 185 243 259 275 276 183 317 199 29 21 352 11 356 356 349 354 2 28 21 15 343 9 38 11 19 10 8 5 26 23 22 24 32 41 43
276 223 246 227 227 238 264 221 246 254 253 249 269 266 219 234 220 171 240 214 354 53 201 163 131 90 91 105 98 75 56 346 356 40 40 341 17 349 348 359 20 4 37 7 29 1 9 16 27 36 48 47 43 50
194 215 228 219 207 259 235 225 227 258 255 248 263 274 255 256 183 186 251 51 50 78 155 143 156 139 154 185 209 93 14 320 43 96 342 20 342 9 352 7 9 9 7 341 352 35 17 15 18 30 37 41 52 61
201 230 212 247 222 228 235 227 241 266 265 257 259 282 34 106 247 234 160 212 130 168 147 172 201 193 204 186 167 190 351 327 341 52 322 3 348 6 15 285 343 5 42 34 13 15 33 34 19 16 22 24 15 13
234 210 207 233 214 203 241 259 247 254 281 264 232 285 109 236 296 226 132 21 89 160 172 179 187 165 167 180 231 24 241 352 342 334 335 3 1 49 0 10 36 29 24 2 344 346 4 74 51 19 16 5 7 5
249 232 217 225 231 251 259 259 280 288 298 319 287 284 199 149 14 321 85 45 142 166 171 172 184 171 162 146 144 106 42 8 360 349 11 11 15 3 355 20 23 23 10 9 17 15 26 55 11 16 17 23 18 11
236 265 240 218 225 241 261 285 292 259 208 270 14 347 329 286 153 21 30 62 154 166 172 174 179 178 176 160 213 205 217 274 270 337 293 285 279 22 8 43 32 60 57 40 32 32 28 22 21 20 23 21 15 15
230 230 231 245 235 236 245 233 251 238 223 347 107 280 301 308 359 324 128 182 174 174 178 177 181 191 194 186 190 233 254 295 345 2 334 42 63 39 26 70 37 102 180 76 76 62 62 49 37 27 30 22 16 12
234 224 222 230 228 228 239 233 253 267 270 277 285 282 287 284 181 295 209 201 195 195 194 196 194 198 222 226 227 241 267 285 302 337 4 31 51 33 30 69 101 119 89 7 266 306 11 326 286 326 16 26 11 1
220 215 225 237 248 252 257 267 267 270 271 269 265 273 292 294 274 229 211 221 210 203 202 211 213 210 223 223 245 280 288 283 242 279 312 319 347 46 18 8 202 213 267 351 348 359 359 357 10 6 22 357 354 356
224 232 239 246 253 254 249 250 258 256 255 247 236 245 247 234 254 224 216 208 214 207 204 208 194 195 207 231 315 324 334 306 298 287 265 284 289 316 316 291 293 261 261 272 319 344 356 344 351 354 348 1 357 356
216 225 227 257 262 256 249 243 254 250 246 229 235 240 232 246 224 189 211 205 213 216 205 202 211 215 171 220 289 316 334 306 298 268 249 241 232 263 287 282 256 292 273 273 282 299 303 331 338 331 314 317 323 325
Wind_Speed_850mb
33 33 32 32 30 28 29 31 30 29 28 25 22 17 13 13 16 11 10 20 9 8 7 2 6 5 3 6 11 14 11 12 10 11 10 12 9 14 8 18 24 24 20 21 26 33 42 20 9 13 15 11 15 15
33 32 31 29 28 27 29 29 30 28 26 24 21 16 10 8 13 13 8 20 11 4 6 4 4 4 3 3 11 3 10 6 16 8 3 9 10 11 15 19 11 17 19 19 17 19 11 8 7 6 12 20 25 21
32 31 30 28 26 26 28 29 30 27 26 23 19 15 9 5 9 12 8 21 11 5 5 10 11 3 2 7 5 11 4 4 2 7 16 8 8 13 18 17 23 14 20 22 27 33 33 25 5 16 34 38 29 37
29 28 27 26 26 27 28 29 28 26 25 23 17 13 7 4 6 9 9 13 10 8 11 13 7 4 8 9 9 6 3 1 3 6 15 10 12 6 15 21 20 26 28 19 30 37 46 44 43 37 41 43 47 51
27 26 26 27 28 28 27 28 27 26 24 20 15 10 5 4 5 6 4 4 13 7 14 11 4 4 5 11 10 7 8 7 11 16 12 14 19 14 20 23 23 27 23 21 12 24 32 38 44 49 54 57 59 59
26 26 25 26 27 27 28 28 27 24 23 17 11 6 4 3 3 6 6 3 10 10 8 6 8 11 11 12 11 11 10 11 16 18 20 18 19 16 11 20 31 23 28 28 30 35 42 49 51 46 55 54 55 52
26 25 26 25 25 27 29 27 27 22 21 13 5 2 3 4 4 8 5 2 10 9 5 9 14 13 15 11 13 14 9 16 17 24 25 26 30 12 20 27 35 41 24 19 25 36 45 46 47 48 57 61 62 62
24 23 23 24 24 28 30 31 25 18 13 8 5 2 2 1 10 7 0 4 11 3 7 7 8 17 17 19 16 7 16 9 11 20 18 18 27 12 8 27 17 13 20 29 36 37 46 54 53 55 54 59 63 61
22 21 22 22 26 28 28 27 18 13 6 7 5 4 11 6 3 2 8 10 3 4 6 9 10 9 15 8 5 12 6 9 6 17 15 6 15 11 16 24 23 13 21 36 47 49 51 49 54 59 60 60 63 61
20 21 21 23 26 26 27 23 17 4 5 3 7 2 7 4 6 4 4 5 5 8 8 11 3 6 8 7 3 9 1 7 10 4 7 12 19 11 12 18 23 23 27 41 46 51 55 58 63 67 64 63 62 63
18 18 20 24 27 25 21 16 5 4 3 4 4 1 4 1 2 6 6 8 8 8 14 11 9 4 8 11 1 5 4 3 5 7 7 9 5 1 18 19 20 28 37 40 44 43 50 60 67 64 66 69 69 70
14 17 21 24 26 21 16 14 4 4 5 1 3 1 3 4 9 7 6 8 9 6 16 17 13 8 5 4 8 4 6 5 10 6 6 6 4 3 19 24 33 35 40 40 40 44 58 64 63 65 66 68 70 74
12 17 20 22 19 18 12 6 5 4 5 4 3 6 7 8 2 9 12 7 7 14 15 17 11 7 7 8 9 5 8 8 13 6 7 8 9 5 17 29 34 36 38 39 45 46 63 65 67 67 78 69 65 67
20 23 28 27 8 10 18 12 5 2 1 5 7 5 9 10 10 10 10 7 10 10 14 10 9 8 6 7 8 8 6 6 6 5 10 7 14 16 19 29 33 38 37 39 41 49 51 56 63 66 49 48 47 46
20 23 29 20 6 3 7 6 3 6 3 8 9 7 15 23 13 10 2 7 10 8 8 5 6 11 9 7 6 6 7 7 9 12 15 13 8 16 22 29 35 32 32 32 34 47 53 51 69 64 53 53 46 48
25 23 18 13 8 10 7 7 6 3 7 9 12 14 22 15 18 19 20 17 9 16 16 11 5 6 9 6 10 11 6 10 12 6 12 16 13 21 26 30 29 26 28 31 32 39 45 45 45 54 58 60 50 47
19 9 20 18 13 14 13 9 6 8 10 9 15 25 27 25 19 16 8 9 13 19 6 8 9 8 5 7 7 9 10 18 19 25 34 26 20 25 28 30 23 22 23 27 31 35 36 45 46 40 55 68 47 49
6 21 26 21 11 10 13 9 7 9 12 20 21 19 16 20 22 23 16 14 13 24 7 9 7 8 8 17 19 2 5 34 26 27 28 29 26 29 27 24 18 20 23 26 29 31 33 40 46 56 52 56 54 49
14 23 25 16 10 7 4 7 10 10 18 21 21 23 24 26 25 26 25 23 21 14 9 8 9 10 11 14 21 23 19 27 29 30 28 16 16 20 19 19 18 18 23 26 26 29 33 40 40 45 54 47 54 55
17 14 11 9 16 5 6 7 8 12 13 12 21 25 24 25 23 21 21 15 15 10 10 9 14 20 16 9 5 15 16 27 24 22 18 13 13 12 11 11 12 15 20 19 22 28 31 34 37 43 51 48 43 49
8 5 6 7 12 11 8 7 11 14 20 23 19 19 22 22 25 18 13 9 10 10 10 11 14 5 4 12 9 11 13 10 14 12 12 11 14 14 13 12 14 19 17 21 30 27 24 31 35 31 38 41 44 38
11 8 6 10 10 8 12 15 14 16 17 25 32 28 25 16 16 12 13 12 11 13 9 8 2 2 3 4 5 3 5 5 6 5 6 8 6 9 11 16 17 19 7 16 19 23 26 29 35 30 28 28 33 42
12 9 7 8 9 9 12 13 10 10 8 8 11 7 7 8 7 8 9 12 1 6 1 4 6 5 10 9 8 7 4 2 5 5 6 4 7 7 12 10 8 14 11 9 19 19 24 22 25 20 28 32 30 30
17 8 8 9 17 10 7 10 12 10 10 14 7 7 3 2 6 4 8 5 12 7 10 11 12 14 10 9 10 4 3 4 12 4 8 10 8 11 11 10 13 12 11 8 15 13 17 20 22 21 25 24 23 25
8 10 9 12 11 8 10 7 7 6 12 11 9 5 4 3 3 6 4 7 6 12 15 12 13 12 11 15 8 6 3 7 6 16 13 12 14 8 6 6 7 13 11 13 11 13 10 14 17 20 22 24 24 24
9 14 13 8 10 9 6 6 5 7 14 8 9 1 4 3 3 3 2 13 4 15 17 17 13 11 8 4 4 2 4 8 9 8 10 8 11 6 11 12 6 11 10 9 11 13 11 7 9 9 11 18 24 25
8 12 19 20 14 13 12 16 23 17 10 4 5 5 6 2 2 8 11 8 5 17 19 19 14 10 11 11 5 4 4 4 7 7 6 9 9 8 8 10 12 11 13 13 13 9 12 10 11 13 16 16 18 20
20 10 16 20 21 19 21 20 17 5 3 12 10 13 8 2 3 10 11 3 9 17 20 19 15 11 8 6 4 3 2 5 10 3 6 6 6 8 8 2 5 7 10 13 9 10 13 12 12 14 15 15 17 18
19 16 18 20 18 13 15 14 17 8 8 7 5 6 6 10 8 7 2 5 11 19 21 20 16 12 8 6 4 5 5 8 7 10 16 6 12 11 8 3 5 2 9 4 21 22 12 15 12 8 10 11 11 13
27 25 20 19 23 17 28 20 19 18 13 14 15 21 18 27 3 1 5 9 14 22 22 20 19 15 15 13 13 10 5 10 7 8 9 11 13 12 6 2 2 3 2 1 2 2 17 9 5 4 14 13 16 16
17 20 28 32 30 30 32 28 28 28 28 28 26 28 23 16 8 8 11 10 14 20 23 23 17 14 15 10 8 11 10 4 12 7 7 11 3 6 7 4 2 2 1 2 7 9 14 11 10 8 9 12 14 17
27 32 30 24 28 29 29 30 30 29 29 25 26 25 20 16 23 18 13 16 14 23 24 20 21 21 14 7 5 13 11 12 11 7 5 7 6 4 5 3 2 4 5 4 6 7 11 13 12 12 15 9 13 14
24 21 14 19 25 28 33 29 28 18 25 25 26 27 24 22 10 16 16 16 16 16 25 27 25 18 12 6 7 9 6 3 1 5 9 9 11 11 13 10 6 6 8 10 10 11 10 9 14 13 14 14 15 14
Wind_Direction_850mb
323 325 326 326 327 329 334 337 339 341 341 342 341 341 340 358 12 56 346 6 35 300 70 70 15 308 231 246 299 76 228 196 222 258 264 273 261 287 309 281 289 282 262 238 247 261 263 25 305 272 43 1 338 324
320 322 322 322 324 326 330 332 335 335 336 338 337 337 335 349 9 53 360 340 358 253 23 238 221 243 195 356 330 167 357 354 7 293 315 307 287 262 271 273 294 250 271 306 323 330 26 4 49 31 325 319 309 293
321 321 321 321 322 324 327 329 329 332 330 331 332 326 322 322 355 7 9 347 355 268 174 182 157 66 195 225 225 296 142 18 186 311 330 304 288 306 281 280 300 260 265 271 279 287 297 301 324 294 297 296 301 291
319 319 320 320 321 323 324 324 325 326 324 325 323 320 306 289 340 357 35 332 357 292 275 133 185 295 248 212 197 207 18 136 303 271 274 279 285 295 284 306 304 301 316 294 280 280 290 293 302 321 308 298 292 287
319 322 323 322 321 321 321 320 322 322 320 321 315 306 273 250 332 359 332 338 20 346 331 85 152 158 133 169 178 200 210 241 262 249 231 255 271 293 289 284 272 265 283 285 314 342 311 304 304 305 302 295 290 289
320 321 321 321 322 323 323 322 322 321 318 319 309 286 241 237 326 77 234 252 358 7 277 216 101 163 169 170 189 210 230 254 260 282 285 283 269 261 280 283 292 313 292 316 310 308 297 296 294 292 291 294 296 298
320 320 322 324 325 328 329 324 318 315 318 310 297 261 242 266 227 258 360 314 353 357 274 231 167 172 185 205 219 227 227 256 264 283 265 269 277 245 270 272 295 291 302 302 295 294 289 295 301 297 296 292 289 286
320 321 324 324 327 331 329 326 316 313 311 302 290 263 277 204 104 85 310 236 343 303 245 268 111 160 190 219 208 198 261 205 266 279 284 267 272 260 278 275 324 324 325 301 301 303 298 295 300 298 293 298 291 280
316 319 323 325 328 327 329 332 320 319 306 304 292 127 106 98 258 303 280 289 238 256 297 266 196 107 170 237 276 229 218 250 152 260 246 268 246 202 242 321 323 299 294 301 303 302 296 302 300 299 296 292 294 287
316 320 318 319 322 325 331 328 325 335 344 112 132 232 191 239 204 276 307 178 228 209 231 269 337 128 231 153 249 341 303 298 253 213 203 218 266 20 288 314 316 307 302 302 313 316 314 309 303 301 294 294 291 283
311 314 316 324 337 331 328 335 0 57 120 12 285 8 209 175 213 241 244 233 178 216 204 226 265 356 144 293 315 226 209 233 265 220 268 281 131 111 356 335 319 306 305 315 317 319 310 313 307 302 297 294 293 284
316 315 318 326 328 329 355 17 77 118 300 323 279 283 271 256 234 238 242 174 207 260 170 206 170 227 104 248 261 261 274 205 253 108 269 268 186 304 323 332 324 319 318 312 311 315 320 310 312 309 303 297 291 285
330 337 334 334 321 313 340 358 302 260 256 300 299 237 219 213 305 226 192 207 210 187 167 191 178 197 196 232 247 238 236 235 303 243 239 242 183 301 337 325 321 322 316 315 315 313 319 331 327 315 306 299 297 294
305 317 323 332 310 337 353 352 275 269 150 251 232 273 223 200 238 205 241 54 99 139 178 188 194 229 205 236 226 241 241 283 250 259 247 323 52 333 337 326 317 323 320 318 326 333 331 335 342 342 340 337 325 309
314 313 315 321 280 279 351 347 307 226 244 250 231 238 222 244 268 249 226 207 187 230 231 321 230 201 213 226 234 265 220 250 200 220 274 351 328 317 327 323 321 318 314 319 325 340 352 341 339 345 355 352 346 353
306 315 310 319 299 234 285 327 322 231 246 239 235 250 244 261 231 206 209 227 193 253 256 216 241 227 217 245 212 223 232 213 250 321 279 312 346 321 321 320 316 309 314 317 327 335 338 332 350 351 0 357 357 354
307 288 311 317 289 254 256 301 276 234 246 229 237 235 264 294 300 283 266 251 217 257 252 266 242 220 226 234 233 242 271 307 354 335 328 351 342 320 314 311 305 304 312 318 316 324 334 348 347 351 359 359 356 355
290 284 300 314 267 254 253 247 254 252 253 250 257 263 255 257 273 281 268 276 248 267 237 246 267 239 238 260 276 357 291 301 327 345 322 316 310 306 304 300 297 307 312 315 324 323 333 340 347 357 6 8 14 11
259 276 295 291 229 211 250 232 224 263 246 260 268 267 264 264 264 265 268 256 251 230 237 240 244 250 260 281 284 290 312 321 310 316 310 327 320 314 311 305 304 315 324 336 347 346 348 356 350 358 7 18 14 25
317 308 296 246 202 205 254 251 242 262 269 313 276 265 261 264 264 246 245 236 240 230 240 236 264 290 298 296 295 298 281 294 302 315 339 348 336 326 325 321 326 329 355 346 351 3 359 358 1 1 13 20 30 47
19 342 322 193 203 242 269 261 249 250 276 274 285 276 272 262 244 243 268 229 224 242 254 280 299 271 293 300 306 292 294 305 327 335 339 7 358 353 352 342 342 22 18 359 0 359 18 15 17 12 17 31 32 55
278 262 287 199 222 248 256 237 251 295 275 272 284 266 260 265 257 236 188 185 243 259 275 276 183 317 199 29 21 352 11 356 356 349 354 2 28 21 15 343 9 38 11 19 10 8 5 26 23 22 24 32 41 43
276 223 246 227 227 238 264 221 246 254 253 249 269 266 219 234 220 171 240 214 354 53 201 163 131 90 91 105 98 75 56 346 356 40 40 341 17 349 348 359 20 4 37 7 29 1 9 16 27 36 48 47 43 50
194 215 228 219 207 259 235 225 227 258 255 248 263 274 255 256 183 186 251 51 50 78 155 143 156 139 154 185 209 93 14 320 43 96 342 20 342 9 352 7 9 9 7 341 352 35 17 15 18 30 37 41 52 61
201 230 212 247 222 228 235 227 241 266 265 257 259 282 34 106 247 234 160 212 130 168 147 172 201 193 204 186 167 190 351 327 341 52 322 3 348 6 15 285 343 5 42 34 13 15 33 34 19 16 22 24 15 13
234 210 207 233 214 203 241 259 247 254 281 264 232 285 109 236 296 226 132 21 89 160 172 179 187 165 167 180 231 24 241 352 342 334 335 3 1 49 0 10 36 29 24 2 344 346 4 74 51 19 16 5 7 5
249 232 217 225 231 251 259 259 280 288 298 319 287 284 199 149 14 321 85 45 142 166 171 172 184 171 162 146 144 106 42 8 360 349 11 11 15 3 355 20 23 23 10 9 17 15 26 55 11 16 17 23 18 11
236 265 240 218 225 241 261 285 292 259 208 270 14 347 329 286 153 21 30 62 154 166 172 174 179 178 176 160 213 205 217 274 270 337 293 285 279 22 8 43 32 60 57 40 32 32 28 22 21 20 23 21 15 15
230 230 231 245 235 236 245 233 251 238 223 347 107 280 301 308 359 324 128 182 174 174 178 177 181 191 194 186 190 233 254 295 345 2 334 42 63 39 26 70 37 102 180 76 76 62 62 49 37 27 30 22 16 12
234 224 222 230 228 228 239 233 253 267 270 277 285 282 287 284 181 295 209 201 195 195 194 196 194 198 222 226 227 241 267 285 302 337 4 31 51 33 30 69 101 119 89 7 266 306 11 326 286 326 16 26 11 1
220 215 225 237 248 252 257 267 267 270 271 269 265 273 292 294 274 229 211 221 210 203 202 211 213 210 223 223 245 280 288 283 242 279 312 319 347 46 18 8 202 213 267 351 348 359 359 357 10 6 22 357 354 356
224 232 239 246 253 254 249 250 258 256 255 247 236 245 247 234 254 224 216 208 214 207 204 208 194 195 207 231 315 324 334 306 298 287 265 284 289 316 316 291 293 261 261 272 319 344 356 344 351 354 348 1 357 356
216 225 227 257 262 256 249 243 254 250 246 229 235 240 232 246 224 189 211 205 213 216 205 202 211 215 171 220 289 316 334 306 298 268 249 241 232 263 287 282 256 292 273 273 282 299 303 331 338 331 314 317 323 325